This is the latest recevied weather packets stored in our database for station/object VE3CGR-6. If no packets are shown the sender has not sent any weather packets the latest 10 day(s).
| Time | Temp. | Humidity | Pressure | Rain* | Wind** | Luminosity | Snow |
|---|---|---|---|---|---|---|---|
| 1788279618 | 26.11° C | 83% | 1015.2 hPa | 0 mm | - | - | - |
| 1788279018 | 26.11° C | 82% | 1015.3 hPa | 0 mm | - | - | - |
| 1788278418 | 26.11° C | 82% | 1015.2 hPa | 0 mm | - | - | - |
| 1788277818 | 26.11° C | 82% | 1015.2 hPa | 0 mm | - | - | - |
| 1788277218 | 26.11° C | 83% | 1015.1 hPa | 0 mm | - | - | - |
| 1788276618 | 25.56° C | 82% | 1015.1 hPa | 0 mm | - | - | - |
| 1788276025 | 25° C | 83% | 1015.1 hPa | 0 mm | - | - | - |
| 1788275417 | 25° C | 84% | 1015 hPa | 0 mm | - | - | - |
| 1788274818 | 25° C | 85% | 1014.9 hPa | 0 mm | - | - | - |
| 1788274233 | 24.44° C | 86% | 1014.8 hPa | 0 mm | - | - | - |
| 1788273618 | 24.44° C | 89% | 1014.7 hPa | 0 mm | - | - | - |
| 1788273018 | 23.33° C | 92% | 1014.6 hPa | 0 mm | - | - | - |
| 1788272418 | 23.33° C | 93% | 1014.5 hPa | 0 mm | - | - | - |
| 1788271818 | 22.78° C | 94% | 1014.3 hPa | 0 mm | - | - | - |
| 1788271218 | 22.22° C | 94% | 1014.3 hPa | 0 mm | - | - | - |
| 1788270618 | 22.22° C | 94% | 1014.2 hPa | 0 mm | - | - | - |
| 1788270018 | 22.22° C | 94% | 1014.3 hPa | 0 mm | - | - | - |
| 1788269418 | 21.67° C | 94% | 1014.4 hPa | 0 mm | - | - | - |
| 1788268818 | 21.67° C | 94% | 1014.5 hPa | 0 mm | - | - | - |
| 1788268217 | 21.67° C | 94% | 1014.6 hPa | 0 mm | - | - | - |
| 1788267618 | 21.67° C | 94% | 1014.7 hPa | 0 mm | - | - | - |
| 1788267018 | 21.11° C | 94% | 1014.8 hPa | 0 mm | - | - | - |
| 1788266418 | 21.11° C | 94% | 1014.9 hPa | 0 mm | - | - | - |
| 1788265818 | 21.11° C | 94% | 1014.9 hPa | 0 mm | - | - | - |
| 1788265217 | 20.56° C | 94% | 1014.9 hPa | 0 mm | - | - | - |
* Rain latest hour (hover to see other rain measurements)
** Current wind speed in m/s (hover to see current wind gust speed)